QFA558 YSSY-YBBN

Flight info

Callsign QFA558
Flight time 1h 12m
Altitude 39000
Route TESAT H252 OLSEM Y193 BANDA H252 BN
Aircraft B738/M-SDE2E3FGHIRWXY/LB1

Departure

Time 2026-05-07 09:54
Airport Sydney Kingsford Smith International Airport (YSSY)

Arrival

Time 2026-05-07 11:06
Airport Brisbane International Airport (YBBN)
Time Latitude Longitude Altitude Speed Heading
2026-05-07 09:30 -33.93155 151.17913 29 ft 0 kts 191°
2026-05-07 09:42 -33.93150 151.17914 29 ft 2 kts 191°
2026-05-07 09:42 -33.93132 151.17917 29 ft 3 kts 174°
2026-05-07 09:42 -33.93113 151.17912 29 ft 3 kts 172°
2026-05-07 09:43 -33.93096 151.17913 29 ft 3 kts 215°
2026-05-07 09:43 -33.93084 151.17929 29 ft 3 kts 258°
2026-05-07 09:43 -33.93083 151.17943 29 ft 2 kts 277°
2026-05-07 09:43 -33.93083 151.17947 29 ft 1 kts 280°
2026-05-07 09:45 -33.93080 151.17924 29 ft 5 kts 279°
2026-05-07 09:46 -33.93074 151.17878 29 ft 5 kts 281°
2026-05-07 09:46 -33.93066 151.17828 29 ft 7 kts 280°
2026-05-07 09:46 -33.93056 151.17764 29 ft 9 kts 286°
2026-05-07 09:46 -33.93026 151.17689 29 ft 12 kts 295°
2026-05-07 09:47 -33.93006 151.17587 29 ft 13 kts 269°
2026-05-07 09:47 -33.93073 151.17524 29 ft 13 kts 199°
2026-05-07 09:47 -33.93165 151.17536 29 ft 15 kts 168°
2026-05-07 09:47 -33.93272 151.17564 29 ft 17 kts 168°
2026-05-07 09:48 -33.93394 151.17593 29 ft 19 kts 171°
2026-05-07 09:48 -33.93525 151.17596 29 ft 19 kts 167°
2026-05-07 09:48 -33.93649 151.17637 29 ft 18 kts 154°
2026-05-07 09:48 -33.93764 151.17692 29 ft 18 kts 168°
2026-05-07 09:49 -33.93844 151.17750 29 ft 11 kts 88°
2026-05-07 09:49 -33.93823 151.17846 29 ft 14 kts 73°
2026-05-07 09:49 -33.93794 151.17967 29 ft 15 kts 74°
2026-05-07 09:49 -33.93766 151.18088 29 ft 15 kts 75°
2026-05-07 09:50 -33.93736 151.18214 29 ft 17 kts 74°
2026-05-07 09:50 -33.93702 151.18362 29 ft 20 kts 74°
2026-05-07 09:50 -33.93663 151.18526 29 ft 20 kts 74°
2026-05-07 09:50 -33.93624 151.18688 29 ft 20 kts 75°
2026-05-07 09:51 -33.93592 151.18836 29 ft 17 kts 81°
2026-05-07 09:51 -33.93643 151.18940 27 ft 9 kts 160°
2026-05-07 09:51 -33.93656 151.18945 27 ft 0 kts 164°
2026-05-07 09:53 -33.93661 151.18947 27 ft 4 kts 164°
2026-05-07 09:53 -33.93745 151.18950 25 ft 18 kts 207°
2026-05-07 09:53 -33.93816 151.18724 27 ft 58 kts 255°
2026-05-07 09:54 -33.93993 151.17965 28 ft 128 kts 255°
2026-05-07 09:54 -33.94248 151.16808 517 ft 149 kts 257°
2026-05-07 09:54 -33.94497 151.15604 1544 ft 146 kts 252°
2026-05-07 09:54 -33.94755 151.14449 2599 ft 142 kts 249°
2026-05-07 09:55 -33.95086 151.13231 3135 ft 169 kts 250°
2026-05-07 09:55 -33.95017 151.11667 3369 ft 212 kts 283°
2026-05-07 09:55 -33.94041 151.10159 3782 ft 252 kts 314°
2026-05-07 09:55 -33.92320 151.09259 4210 ft 289 kts 346°
2026-05-07 09:56 -33.90376 151.09381 5134 ft 299 kts 14°
2026-05-07 09:56 -33.88491 151.10468 6075 ft 304 kts 40°
2026-05-07 09:56 -33.86973 151.12229 6997 ft 305 kts 49°
2026-05-07 09:56 -33.85526 151.14103 7986 ft 305 kts 50°
2026-05-07 09:57 -33.84092 151.16002 8915 ft 309 kts 49°
2026-05-07 09:57 -33.82640 151.17926 9861 ft 313 kts 49°
2026-05-07 09:57 -33.81160 151.19880 10567 ft 324 kts 49°
2026-05-07 09:57 -33.79576 151.21961 10787 ft 351 kts 49°
2026-05-07 09:58 -33.77869 151.24193 11191 ft 370 kts 48°
2026-05-07 09:58 -33.76100 151.26494 11926 ft 377 kts 48°
2026-05-07 09:58 -33.74311 151.28810 12779 ft 380 kts 48°
2026-05-07 09:58 -33.72501 151.31152 13596 ft 385 kts 48°
2026-05-07 09:59 -33.70664 151.33527 14294 ft 391 kts 49°
2026-05-07 09:59 -33.68790 151.35944 14903 ft 399 kts 49°
2026-05-07 09:59 -33.66883 151.38406 15510 ft 407 kts 49°
2026-05-07 09:59 -33.64934 151.40923 16050 ft 417 kts 50°
2026-05-07 10:00 -33.62938 151.43498 16611 ft 426 kts 50°
2026-05-07 10:00 -33.60897 151.46128 17184 ft 434 kts 50°
2026-05-07 10:00 -33.58819 151.48803 17750 ft 442 kts 51°
2026-05-07 10:00 -33.56707 151.51519 18309 ft 450 kts 51°
2026-05-07 10:01 -33.54557 151.54282 18816 ft 457 kts 51°
2026-05-07 10:01 -33.52400 151.57050 19361 ft 462 kts 51°
2026-05-07 10:01 -33.50178 151.59903 19646 ft 474 kts 52°
2026-05-07 10:01 -33.47905 151.62817 20086 ft 482 kts 51°
2026-05-07 10:02 -33.45630 151.65722 21124 ft 473 kts 51°
2026-05-07 10:02 -33.43372 151.68609 21721 ft 478 kts 52°
2026-05-07 10:02 -33.41079 151.71545 22061 ft 488 kts 51°
2026-05-07 10:02 -33.38547 151.74323 22472 ft 500 kts 40°
2026-05-07 10:03 -33.35592 151.76582 22978 ft 508 kts 29°
2026-05-07 10:03 -33.32334 151.78266 23404 ft 513 kts 15°
2026-05-07 10:03 -33.28889 151.79429 23839 ft 516 kts 12°
2026-05-07 10:03 -33.25402 151.80501 24288 ft 519 kts 11°
2026-05-07 10:04 -33.21903 151.81553 24809 ft 519 kts 11°
2026-05-07 10:04 -33.18405 151.82616 25347 ft 519 kts 11°
2026-05-07 10:04 -33.14906 151.83699 25838 ft 520 kts 11°
2026-05-07 10:04 -33.11403 151.84803 26239 ft 522 kts 10°
2026-05-07 10:05 -33.07887 151.85924 26693 ft 523 kts 10°
2026-05-07 10:05 -33.04367 151.87055 27137 ft 525 kts
2026-05-07 10:05 -33.00839 151.88191 27566 ft 526 kts
2026-05-07 10:05 -32.97335 151.89319 27982 ft 528 kts
2026-05-07 10:06 -32.93727 151.90477 28155 ft 534 kts
2026-05-07 10:06 -32.86614 151.92760 28081 ft 525 kts
2026-05-07 10:06 -32.83128 151.93885 28195 ft 512 kts
2026-05-07 10:07 -32.79719 151.94982 28143 ft 506 kts
2026-05-07 10:07 -32.72931 151.97142 28149 ft 507 kts
2026-05-07 10:08 -32.66053 151.99316 28149 ft 513 kts
2026-05-07 10:08 -32.59193 152.01497 28145 ft 510 kts
2026-05-07 10:09 -32.52275 152.03691 28600 ft 517 kts
2026-05-07 10:09 -32.48818 152.04789 29134 ft 515 kts
2026-05-07 10:09 -32.45359 152.05887 29520 ft 515 kts
2026-05-07 10:09 -32.41902 152.06984 29999 ft 514 kts
2026-05-07 10:10 -32.38440 152.08080 30358 ft 515 kts
2026-05-07 10:10 -32.34975 152.09174 30675 ft 516 kts
2026-05-07 10:10 -32.31510 152.10267 31090 ft 514 kts
2026-05-07 10:10 -32.28080 152.11352 31686 ft 507 kts
2026-05-07 10:11 -32.24708 152.12437 32452 ft 496 kts
2026-05-07 10:11 -32.21437 152.13479 33393 ft 476 kts
2026-05-07 10:11 -32.18307 152.14478 34521 ft 457 kts
2026-05-07 10:11 -32.15260 152.15447 35038 ft 452 kts
2026-05-07 10:12 -32.12212 152.16393 35184 ft 455 kts
2026-05-07 10:12 -32.06037 152.18290 35422 ft 462 kts
2026-05-07 10:12 -32.02920 152.19256 35622 ft 463 kts
2026-05-07 10:13 -31.99852 152.20215 35885 ft 461 kts
2026-05-07 10:13 -31.96736 152.21197 36387 ft 455 kts
2026-05-07 10:13 -31.93734 152.22151 36732 ft 452 kts
2026-05-07 10:13 -31.90693 152.23110 36919 ft 453 kts
2026-05-07 10:14 -31.87634 152.24060 37000 ft 457 kts
2026-05-07 10:14 -31.84560 152.25013 37207 ft 457 kts
2026-05-07 10:14 -31.81494 152.25969 37527 ft 455 kts
2026-05-07 10:14 -31.78439 152.26924 37816 ft 453 kts
2026-05-07 10:15 -31.75412 152.27873 38231 ft 446 kts 360°
2026-05-07 10:15 -31.72438 152.28809 38666 ft 441 kts 359°
2026-05-07 10:15 -31.69475 152.29732 38829 ft 442 kts 359°
2026-05-07 10:16 -31.63499 152.31577 38997 ft 445 kts 359°
2026-05-07 10:16 -31.60532 152.32499 39157 ft 441 kts 359°
2026-05-07 10:16 -31.57558 152.33422 39150 ft 443 kts 360°
2026-05-07 10:17 -31.51551 152.35279 39165 ft 447 kts 360°
2026-05-07 10:17 -31.45536 152.37139 39167 ft 450 kts 360°
2026-05-07 10:18 -31.39455 152.39016 39176 ft 453 kts
2026-05-07 10:18 -31.33374 152.40898 39173 ft 450 kts 360°
2026-05-07 10:19 -31.27408 152.42753 39170 ft 438 kts 359°
2026-05-07 10:19 -31.21518 152.44573 39161 ft 438 kts 359°
2026-05-07 10:20 -31.15638 152.46365 39156 ft 436 kts 359°
2026-05-07 10:20 -31.09779 152.48171 39172 ft 436 kts 360°
2026-05-07 10:21 -31.03914 152.49986 39158 ft 436 kts 360°
2026-05-07 10:21 -30.98033 152.51785 39162 ft 438 kts 360°
2026-05-07 10:22 -30.92112 152.53585 39185 ft 440 kts 359°
2026-05-07 10:22 -30.86172 152.55408 39169 ft 442 kts 360°
2026-05-07 10:23 -30.80268 152.57211 39133 ft 440 kts 359°
2026-05-07 10:23 -30.74354 152.59163 39180 ft 445 kts
2026-05-07 10:24 -30.68428 152.61419 39166 ft 448 kts
2026-05-07 10:24 -30.62500 152.63602 39120 ft 448 kts
2026-05-07 10:25 -30.56577 152.65695 39154 ft 446 kts
2026-05-07 10:25 -30.50663 152.67912 39152 ft 447 kts
2026-05-07 10:26 -30.44726 152.70094 39156 ft 448 kts
2026-05-07 10:26 -30.38766 152.72247 39153 ft 448 kts
2026-05-07 10:27 -30.32811 152.74391 39160 ft 449 kts
2026-05-07 10:27 -30.26839 152.76549 39151 ft 450 kts
2026-05-07 10:28 -30.20847 152.78709 39152 ft 450 kts
2026-05-07 10:28 -30.14866 152.80853 39131 ft 449 kts
2026-05-07 10:29 -30.08895 152.83000 39156 ft 449 kts
2026-05-07 10:29 -30.02929 152.85144 39141 ft 449 kts
2026-05-07 10:30 -29.94032 152.88332 39136 ft 448 kts
2026-05-07 10:30 -29.88091 152.90450 39122 ft 447 kts
2026-05-07 10:31 -29.82156 152.92552 39132 ft 446 kts
2026-05-07 10:31 -29.77233 152.94295 39124 ft 445 kts
2026-05-07 10:32 -29.71311 152.96390 39133 ft 445 kts
2026-05-07 10:32 -29.65395 152.98482 39103 ft 444 kts
2026-05-07 10:33 -29.59503 153.00563 39116 ft 443 kts
2026-05-07 10:33 -29.53607 153.02642 39125 ft 443 kts
2026-05-07 10:34 -29.47705 153.04720 39112 ft 444 kts
2026-05-07 10:34 -29.41806 153.06796 39102 ft 443 kts
2026-05-07 10:35 -29.35907 153.08869 39100 ft 443 kts
2026-05-07 10:35 -29.30022 153.10936 39113 ft 443 kts
2026-05-07 10:36 -29.24161 153.12995 39107 ft 443 kts
2026-05-07 10:36 -29.18259 153.15074 39084 ft 443 kts
2026-05-07 10:37 -29.12336 153.17161 39101 ft 443 kts
2026-05-07 10:37 -29.09416 153.18184 38784 ft 449 kts
2026-05-07 10:37 -29.06386 153.19242 38240 ft 448 kts
2026-05-07 10:38 -29.03462 153.20273 37678 ft 445 kts
2026-05-07 10:38 -29.00499 153.21318 37087 ft 444 kts
2026-05-07 10:38 -28.97559 153.22353 36513 ft 442 kts
2026-05-07 10:38 -28.94614 153.23387 35885 ft 441 kts
2026-05-07 10:39 -28.91681 153.24413 35271 ft 442 kts
2026-05-07 10:39 -28.88742 153.25439 34637 ft 443 kts
2026-05-07 10:39 -28.85789 153.26469 34003 ft 444 kts
2026-05-07 10:39 -28.82853 153.27498 33491 ft 440 kts
2026-05-07 10:40 -28.79937 153.28521 32987 ft 436 kts
2026-05-07 10:40 -28.77050 153.29534 32495 ft 432 kts
2026-05-07 10:40 -28.74188 153.30536 32038 ft 428 kts
2026-05-07 10:40 -28.71353 153.31527 31542 ft 424 kts
2026-05-07 10:41 -28.68539 153.32510 31103 ft 420 kts
2026-05-07 10:41 -28.65755 153.33480 30670 ft 416 kts
2026-05-07 10:41 -28.62997 153.34440 30242 ft 413 kts
2026-05-07 10:41 -28.60252 153.35394 29731 ft 410 kts
2026-05-07 10:42 -28.57536 153.36338 29244 ft 406 kts
2026-05-07 10:42 -28.54851 153.37248 28792 ft 400 kts
2026-05-07 10:42 -28.52197 153.38168 28337 ft 398 kts
2026-05-07 10:42 -28.49564 153.39093 27857 ft 395 kts
2026-05-07 10:43 -28.46947 153.40008 27382 ft 392 kts
2026-05-07 10:43 -28.44355 153.40910 26958 ft 387 kts
2026-05-07 10:43 -28.41821 153.41787 26551 ft 384 kts
2026-05-07 10:43 -28.39270 153.42673 26094 ft 382 kts
2026-05-07 10:44 -28.36731 153.43553 25671 ft 380 kts
2026-05-07 10:44 -28.34208 153.44428 25228 ft 380 kts
2026-05-07 10:44 -28.31675 153.45302 24789 ft 380 kts
2026-05-07 10:44 -28.29145 153.46174 24347 ft 383 kts
2026-05-07 10:45 -28.26562 153.47062 23891 ft 391 kts
2026-05-07 10:45 -28.23955 153.47962 23383 ft 393 kts
2026-05-07 10:45 -28.21348 153.48867 22852 ft 390 kts
2026-05-07 10:45 -28.18757 153.49765 22389 ft 386 kts
2026-05-07 10:46 -28.16182 153.50246 21845 ft 367 kts 350°
2026-05-07 10:46 -28.13679 153.49851 21154 ft 362 kts 341°
2026-05-07 10:46 -28.11206 153.49306 20666 ft 361 kts 341°
2026-05-07 10:46 -28.08751 153.48766 20225 ft 359 kts 342°
2026-05-07 10:47 -28.06298 153.48237 19785 ft 357 kts 342°
2026-05-07 10:47 -28.03867 153.47720 19348 ft 355 kts 342°
2026-05-07 10:47 -28.01440 153.47211 18904 ft 354 kts 343°
2026-05-07 10:47 -27.99021 153.46707 18469 ft 353 kts 343°
2026-05-07 10:48 -27.96605 153.46205 17988 ft 353 kts 343°
2026-05-07 10:48 -27.94195 153.45707 17540 ft 351 kts 343°
2026-05-07 10:48 -27.91802 153.45213 17105 ft 348 kts 344°
2026-05-07 10:48 -27.89426 153.44722 16677 ft 346 kts 344°
2026-05-07 10:49 -27.87063 153.44234 16261 ft 344 kts 344°
2026-05-07 10:49 -27.84714 153.43748 15847 ft 342 kts 344°
2026-05-07 10:49 -27.82374 153.43264 15412 ft 341 kts 345°
2026-05-07 10:49 -27.80072 153.42790 14991 ft 340 kts 345°
2026-05-07 10:50 -27.77746 153.42310 14567 ft 340 kts 345°
2026-05-07 10:50 -27.75430 153.41833 14160 ft 339 kts 345°
2026-05-07 10:50 -27.73115 153.41356 13731 ft 338 kts 345°
2026-05-07 10:50 -27.70802 153.40880 13298 ft 336 kts 345°
2026-05-07 10:51 -27.68508 153.40407 12881 ft 334 kts 345°
2026-05-07 10:51 -27.66228 153.39939 12473 ft 333 kts 345°
2026-05-07 10:51 -27.63955 153.39483 12078 ft 331 kts 348°
2026-05-07 10:51 -27.61653 153.39362 11832 ft 330 kts 357°
2026-05-07 10:52 -27.59365 153.39479 11584 ft 330 kts 359°
2026-05-07 10:52 -27.57076 153.39643 11336 ft 329 kts 359°
2026-05-07 10:52 -27.54792 153.39799 11079 ft 328 kts 359°
2026-05-07 10:52 -27.52520 153.39936 10826 ft 325 kts 359°
2026-05-07 10:53 -27.50286 153.40058 10574 ft 319 kts 358°
2026-05-07 10:53 -27.48082 153.40168 10274 ft 315 kts 358°
2026-05-07 10:53 -27.45908 153.40270 10030 ft 310 kts 358°
2026-05-07 10:53 -27.43794 153.40369 9989 ft 297 kts 358°
2026-05-07 10:54 -27.41771 153.40463 9786 ft 290 kts 358°
2026-05-07 10:54 -27.39735 153.40554 9373 ft 291 kts 358°
2026-05-07 10:54 -27.37714 153.40645 9093 ft 288 kts 358°
2026-05-07 10:54 -27.35736 153.40736 8849 ft 284 kts 357°
2026-05-07 10:55 -27.33767 153.40826 8579 ft 281 kts 358°
2026-05-07 10:55 -27.31824 153.40914 8324 ft 279 kts 358°
2026-05-07 10:55 -27.29891 153.41002 8072 ft 277 kts 357°
2026-05-07 10:55 -27.27972 153.41089 7824 ft 276 kts 357°
2026-05-07 10:56 -27.26055 153.41176 7572 ft 275 kts 358°
2026-05-07 10:56 -27.24144 153.41263 7340 ft 274 kts 358°
2026-05-07 10:56 -27.22243 153.41349 7090 ft 273 kts 358°
2026-05-07 10:56 -27.20371 153.41383 6849 ft 270 kts 348°
2026-05-07 10:57 -27.18671 153.40659 6612 ft 258 kts 321°
2026-05-07 10:57 -27.17257 153.39435 6382 ft 255 kts 315°
2026-05-07 10:57 -27.15906 153.38142 6127 ft 255 kts 315°
2026-05-07 10:57 -27.14560 153.36853 5898 ft 253 kts 314°
2026-05-07 10:58 -27.13463 153.35375 5637 ft 243 kts 289°
2026-05-07 10:58 -27.13150 153.33576 5454 ft 231 kts 266°
2026-05-07 10:58 -27.13432 153.31835 5241 ft 225 kts 247°
2026-05-07 10:58 -27.14082 153.30264 5052 ft 221 kts 244°
2026-05-07 10:59 -27.14743 153.28720 4845 ft 218 kts 243°
2026-05-07 10:59 -27.15394 153.27196 4643 ft 214 kts 243°
2026-05-07 10:59 -27.16175 153.25839 4554 ft 201 kts 220°
2026-05-07 10:59 -27.17374 153.25104 4346 ft 193 kts 210°
2026-05-07 11:00 -27.18525 153.24388 4097 ft 186 kts 211°
2026-05-07 11:00 -27.19640 153.23706 3854 ft 180 kts 210°
2026-05-07 11:00 -27.20735 153.23061 3616 ft 175 kts 210°
2026-05-07 11:00 -27.21797 153.22445 3401 ft 170 kts 210°
2026-05-07 11:01 -27.22836 153.21846 3175 ft 166 kts 210°
2026-05-07 11:01 -27.23849 153.21263 2965 ft 162 kts 210°
2026-05-07 11:01 -27.24847 153.20689 2749 ft 159 kts 210°
2026-05-07 11:01 -27.25802 153.20140 2540 ft 154 kts 209°
2026-05-07 11:02 -27.26728 153.19608 2329 ft 144 kts 210°
2026-05-07 11:02 -27.27584 153.19116 2161 ft 135 kts 210°
2026-05-07 11:02 -27.28407 153.18642 1991 ft 132 kts 210°
2026-05-07 11:02 -27.29224 153.18171 1816 ft 131 kts 211°
2026-05-07 11:03 -27.30036 153.17704 1624 ft 131 kts 211°
2026-05-07 11:03 -27.30855 153.17232 1452 ft 134 kts 209°
2026-05-07 11:03 -27.31681 153.16758 1275 ft 133 kts 210°
2026-05-07 11:03 -27.32473 153.16303 1122 ft 125 kts 210°
2026-05-07 11:04 -27.33244 153.15861 957 ft 122 kts 213°
2026-05-07 11:04 -27.34018 153.15415 773 ft 127 kts 213°
2026-05-07 11:04 -27.34822 153.14949 628 ft 133 kts 208°
2026-05-07 11:04 -27.35650 153.14476 438 ft 133 kts 214°
2026-05-07 11:05 -27.36446 153.14017 280 ft 128 kts 211°
2026-05-07 11:05 -27.37257 153.13554 125 ft 130 kts 211°
2026-05-07 11:05 -27.38034 153.13109 26 ft 117 kts 211°
2026-05-07 11:05 -27.38657 153.12750 21 ft 80 kts 207°
2026-05-07 11:06 -27.39059 153.12520 21 ft 58 kts 207°
2026-05-07 11:06 -27.39396 153.12329 20 ft 50 kts 207°
2026-05-07 11:06 -27.39577 153.12208 19 ft 26 kts 236°
2026-05-07 11:06 -27.39542 153.12032 20 ft 23 kts 297°
2026-05-07 11:07 -27.39445 153.11934 21 ft 18 kts 18°
2026-05-07 11:07 -27.39326 153.12003 23 ft 21 kts 27°
2026-05-07 11:07 -27.39194 153.12077 21 ft 21 kts 28°
2026-05-07 11:07 -27.39062 153.12154 22 ft 21 kts 26°
2026-05-07 11:08 -27.38935 153.12215 20 ft 20 kts
2026-05-07 11:08 -27.38831 153.12125 20 ft 16 kts 319°
2026-05-07 11:08 -27.38734 153.12085 20 ft 13 kts 13°
2026-05-07 11:08 -27.38668 153.12053 21 ft 7 kts 316°
2026-05-07 11:09 -27.38657 153.12041 20 ft 0 kts 316°